Weather in Shatta

Russia / Republic of Kalmykia     46°51′08″N   44°47′50″E
temp.,
°C
wind,
m/s
gust,
m/s
humid.,
%
clouds,
%
prec.,
mm/h
press.,
hPa
HPBL,
m
16 june, wed
wed1600:00+25nnw22531 0.0 100930
03:00+23nne33630 0.0 101048
06:00+24ne11610 0.0 1010109
09:00+28ene22460 0.0 1011934
12:00+31ene32360 0.0 10101904
15:00+33e443143 0.0 10092123
18:00+33ene56321 0.0 10092105
21:00+29ne510380 0.0 1008186
17 june, thu
thu1700:00+26ene512492 0.0 1008362
03:00+25ene817481 0.0 1008584
06:00+25ene91754100 0.0 1007679
09:00+30e111439100 0.0 10071063
12:00+36e9122598 0.0 10072574
15:00+38e81216100 0.0 10074092
18:00+33ne6112185 0.0 1007352
21:00+30ene9163372 0.0 1009509
18 june, fri
fri1800:00+23sse3466100 2.3 1011125
03:00+23ne91574100 10.2 1012706
06:00+23ene4107041 1.6 1014809
09:00+27ene8105637 1.6 10141345
12:00+30ese89479 0.0 10141684
15:00+31e584286 0.9 10141594
18:00+28ene8143694 0.4 1015535
21:00+26ene8153435 0.4 1018599
19 june, sat
sat1900:00+24ene7143344 0.0 1019550
03:00+21ne512450 0.0 1019316
06:00+21ene713490 0.0 1021498
09:00+26ene910330 0.0 1021953
12:00+29ene910270 0.0 10201479
15:00+31e911230 0.0 10181825
18:00+30ene911260 0.0 1017972
21:00+26ene815291 0.0 1018431
20 june, sun
sun2000:00+23ene715315 0.0 1018378
03:00+21ene615350 0.0 1018357
06:00+22ene816390 0.0 1018497
09:00+29e1114262 0.0 1018963
12:00+33ese11131948 0.0 10171696
15:00+34ese10111799 0.0 10171917
18:00+32ese811215 0.0 1017950
21:00+26ese614255 0.0 1018333